Time,TemperatureF,DewpointF,PressureIn,WindDirection,WindDirectionDegrees,WindSpeedMPH,WindSpeedGustMPH,Humidity,HourlyPrecipIn,Conditions,Clouds,dailyrainin,SoftwareType,DateUTC
2013-06-20 00:02:00,75.0,61.0,28.37,South,172,5.0,8.0,61,0.00,,,0.00,,2013-06-20 05:02:00,
2013-06-20 00:12:00,75.0,61.0,28.37,South,172,5.0,8.0,61,0.00,,,0.00,,2013-06-20 05:12:00,
2013-06-20 00:22:00,75.0,61.0,28.37,South,172,5.0,8.0,61,0.00,,,0.00,,2013-06-20 05:22:00,
2013-06-20 00:33:00,74.0,61.0,28.37,SSE,150,2.0,4.0,63,0.00,,,0.00,,2013-06-20 05:33:00,
2013-06-20 00:44:00,74.0,61.0,28.37,SE,139,3.0,5.0,65,0.00,,,0.00,,2013-06-20 05:44:00,
2013-06-20 00:53:00,74.0,61.0,28.37,SSE,162,2.0,5.0,65,0.00,,,0.00,,2013-06-20 05:53:00,
2013-06-20 01:01:00,74.0,61.0,28.37,SSE,162,2.0,5.0,65,0.00,,,0.00,,2013-06-20 06:01:00,
2013-06-20 01:11:00,73.0,61.0,28.34,South,170,3.0,5.0,67,0.00,,,0.00,,2013-06-20 06:11:00,
2013-06-20 01:22:00,73.0,61.0,28.34,SW,229,3.0,3.0,67,0.00,,,0.00,,2013-06-20 06:22:00,
2013-06-20 01:33:00,73.0,62.0,28.34,ESE,122,0.0,6.0,68,0.00,,,0.00,,2013-06-20 06:33:00,
2013-06-20 01:43:00,73.0,62.0,28.34,ESE,122,0.0,6.0,68,0.00,,,0.00,,2013-06-20 06:43:00,
2013-06-20 01:53:00,73.0,63.0,28.34,SSE,156,2.0,6.0,70,0.00,,,0.00,,2013-06-20 06:53:00,
2013-06-20 02:01:00,73.0,63.0,28.34,SSE,157,3.0,6.0,70,0.00,,,0.00,,2013-06-20 07:01:00,
2013-06-20 02:12:00,73.0,63.0,28.34,SW,218,2.0,7.0,71,0.00,,,0.00,,2013-06-20 07:12:00,
2013-06-20 02:22:00,72.0,62.0,28.34,SSE,168,4.0,5.0,71,0.00,,,0.00,,2013-06-20 07:22:00,
2013-06-20 02:34:00,72.0,62.0,28.34,SSE,165,3.0,5.0,72,0.00,,,0.00,,2013-06-20 07:34:00,
2013-06-20 02:43:00,72.0,62.0,28.34,South,171,3.0,5.0,72,0.00,,,0.00,,2013-06-20 07:43:00,
2013-06-20 02:52:00,72.0,63.0,28.34,SW,223,0.0,5.0,73,0.00,,,0.00,,2013-06-20 07:52:00,
2013-06-20 03:02:00,72.0,63.0,28.34,SW,223,0.0,5.0,73,0.00,,,0.00,,2013-06-20 08:02:00,
2013-06-20 03:11:00,72.0,63.0,28.34,SW,223,0.0,5.0,73,0.00,,,0.00,,2013-06-20 08:11:00,
2013-06-20 03:22:00,71.0,63.0,28.34,SSE,149,0.0,0.0,76,0.00,,,0.00,,2013-06-20 08:22:00,
2013-06-20 03:34:00,71.0,63.0,28.34,North,4,0.0,3.0,77,0.00,,,0.00,,2013-06-20 08:34:00,
2013-06-20 03:43:00,71.0,63.0,28.34,South,177,0.0,3.0,77,0.00,,,0.00,,2013-06-20 08:43:00,
2013-06-20 03:53:00,70.0,63.0,28.34,SSE,166,0.0,3.0,78,0.00,,,0.00,,2013-06-20 08:53:00,
2013-06-20 04:01:00,70.0,63.0,28.34,South,169,2.0,4.0,79,0.00,,,0.00,,2013-06-20 09:01:00,
2013-06-20 04:11:00,70.0,64.0,28.31,South,185,0.0,5.0,80,0.00,,,0.00,,2013-06-20 09:11:00,
2013-06-20 04:22:00,70.0,64.0,28.31,WSW,244,0.0,3.0,81,0.00,,,0.00,,2013-06-20 09:22:00,
2013-06-20 04:33:00,70.0,64.0,28.34,SSW,199,0.0,3.0,81,0.00,,,0.00,,2013-06-20 09:33:00,
2013-06-20 04:42:00,70.0,64.0,28.34,South,191,0.0,4.0,81,0.00,,,0.00,,2013-06-20 09:42:00,
2013-06-20 04:52:00,70.0,64.0,28.34,South,191,0.0,4.0,81,0.00,,,0.00,,2013-06-20 09:52:00,
2013-06-20 05:01:00,70.0,65.0,28.31,SSE,147,3.0,4.0,83,0.00,,,0.00,,2013-06-20 10:01:00,
2013-06-20 05:11:00,70.0,65.0,28.31,South,172,0.0,5.0,84,0.00,,,0.00,,2013-06-20 10:11:00,
2013-06-20 05:22:00,70.0,65.0,28.31,NNE,31,2.0,2.0,84,0.00,,,0.00,,2013-06-20 10:22:00,
2013-06-20 05:33:00,70.0,65.0,28.31,NNE,31,2.0,2.0,84,0.00,,,0.00,,2013-06-20 10:33:00,
2013-06-20 05:43:00,70.0,65.0,28.31,ENE,67,0.0,2.0,84,0.00,,,0.00,,2013-06-20 10:43:00,
2013-06-20 05:53:00,70.0,65.0,28.31,ESE,117,0.0,2.0,85,0.00,,,0.00,,2013-06-20 10:53:00,
2013-06-20 06:02:00,70.0,65.0,28.31,ESE,117,0.0,2.0,85,0.00,,,0.00,,2013-06-20 11:02:00,
2013-06-20 06:11:00,70.0,65.0,28.31,ESE,117,0.0,2.0,85,0.00,,,0.00,,2013-06-20 11:11:00,
2013-06-20 06:22:00,70.0,66.0,28.31,WSW,242,0.0,0.0,87,0.00,,,0.00,,2013-06-20 11:22:00,
2013-06-20 06:34:00,70.0,66.0,28.31,South,173,0.0,4.0,87,0.00,,,0.00,,2013-06-20 11:34:00,
2013-06-20 06:43:00,70.0,66.0,28.31,South,173,0.0,4.0,87,0.00,,,0.00,,2013-06-20 11:43:00,
2013-06-20 06:53:00,71.0,67.0,28.31,South,172,2.0,5.0,88,0.00,,,0.00,,2013-06-20 11:53:00,
2013-06-20 07:02:00,71.0,67.0,28.31,SW,219,2.0,5.0,88,0.00,,,0.00,,2013-06-20 12:02:00,
2013-06-20 07:11:00,72.0,68.0,28.31,ESE,103,3.0,5.0,87,0.00,,,0.00,,2013-06-20 12:11:00,
2013-06-20 07:22:00,72.0,68.0,28.31,SSE,157,3.0,4.0,86,0.00,,,0.00,,2013-06-20 12:22:00,
2013-06-20 07:34:00,72.0,68.0,28.31,SSE,157,3.0,4.0,86,0.00,,,0.00,,2013-06-20 12:34:00,
2013-06-20 07:43:00,72.0,68.0,28.31,SSE,157,3.0,4.0,86,0.00,,,0.00,,2013-06-20 12:43:00,
2013-06-20 07:53:00,72.0,68.0,28.31,SSE,157,3.0,4.0,86,0.00,,,0.00,,2013-06-20 12:53:00,
2013-06-20 08:02:00,72.0,68.0,28.31,SSE,157,3.0,4.0,86,0.00,,,0.00,,2013-06-20 13:02:00,
2013-06-20 08:22:00,75.0,68.0,28.31,SE,128,4.0,5.0,79,0.00,,,0.00,,2013-06-20 13:22:00,
2013-06-20 08:33:00,76.0,68.0,28.31,South,173,3.0,5.0,77,0.00,,,0.00,,2013-06-20 13:33:00,
2013-06-20 08:42:00,77.0,67.0,28.31,SSE,157,3.0,11.0,72,0.00,,,0.00,,2013-06-20 13:42:00,
2013-06-20 08:53:00,77.0,67.0,28.31,SSE,157,3.0,11.0,72,0.00,,,0.00,,2013-06-20 13:53:00,
2013-06-20 09:01:00,77.0,67.0,28.31,SSE,157,3.0,11.0,72,0.00,,,0.00,,2013-06-20 14:01:00,
2013-06-20 09:11:00,78.0,67.0,28.31,ESE,116,3.0,11.0,68,0.00,,,0.00,,2013-06-20 14:11:00,
2013-06-20 09:22:00,79.0,67.0,28.31,SSW,208,3.0,8.0,66,0.00,,,0.00,,2013-06-20 14:22:00,
2013-06-20 09:32:00,80.0,67.0,28.31,SSE,162,4.0,8.0,64,0.00,,,0.00,,2013-06-20 14:32:00,
2013-06-20 09:42:00,80.0,67.0,28.31,SSE,162,4.0,8.0,64,0.00,,,0.00,,2013-06-20 14:42:00,
2013-06-20 09:53:00,80.0,67.0,28.31,SSE,162,4.0,8.0,64,0.00,,,0.00,,2013-06-20 14:53:00,
2013-06-20 10:01:00,82.0,66.0,28.31,SSE,164,5.0,11.0,58,0.00,,,0.00,,2013-06-20 15:01:00,
2013-06-20 10:11:00,83.0,65.0,28.31,ESE,117,5.0,11.0,55,0.00,,,0.00,,2013-06-20 15:11:00,
2013-06-20 10:22:00,83.0,65.0,28.31,ESE,117,5.0,11.0,55,0.00,,,0.00,,2013-06-20 15:22:00,
2013-06-20 10:33:00,83.0,65.0,28.31,SE,133,3.0,10.0,54,0.00,,,0.00,,2013-06-20 15:33:00,
2013-06-20 10:43:00,83.0,65.0,28.31,SE,133,3.0,10.0,54,0.00,,,0.00,,2013-06-20 15:43:00,
2013-06-20 10:52:00,83.0,65.0,28.31,SE,133,3.0,10.0,54,0.00,,,0.00,,2013-06-20 15:52:00,
2013-06-20 11:01:00,84.0,67.0,28.28,SE,128,3.0,11.0,56,0.00,,,0.00,,2013-06-20 16:01:00,
2013-06-20 11:11:00,84.0,67.0,28.28,SE,128,3.0,11.0,56,0.00,,,0.00,,2013-06-20 16:11:00,
2013-06-20 11:22:00,84.0,67.0,28.28,SE,128,3.0,11.0,56,0.00,,,0.00,,2013-06-20 16:22:00,
2013-06-20 11:33:00,84.0,67.0,28.28,SE,128,3.0,11.0,56,0.00,,,0.00,,2013-06-20 16:33:00,
2013-06-20 11:42:00,86.0,65.0,28.31,ESE,116,7.0,11.0,50,0.00,,,0.00,,2013-06-20 16:42:00,
2013-06-20 11:52:00,86.0,65.0,28.31,ESE,116,7.0,11.0,50,0.00,,,0.00,,2013-06-20 16:52:00,
2013-06-20 12:01:00,87.0,66.0,28.28,South,170,7.0,11.0,50,0.00,,,0.00,,2013-06-20 17:01:00,
2013-06-20 12:11:00,87.0,65.0,28.28,SE,138,3.0,11.0,49,0.00,,,0.00,,2013-06-20 17:11:00,
2013-06-20 12:22:00,88.0,65.0,28.28,SE,125,3.0,8.0,47,0.00,,,0.00,,2013-06-20 17:22:00,
2013-06-20 12:32:00,88.0,64.0,28.28,ESE,118,7.0,8.0,45,0.00,,,0.00,,2013-06-20 17:32:00,
2013-06-20 12:43:00,88.0,64.0,28.28,ESE,118,7.0,8.0,45,0.00,,,0.00,,2013-06-20 17:43:00,
2013-06-20 12:52:00,88.0,64.0,28.28,ESE,118,7.0,8.0,45,0.00,,,0.00,,2013-06-20 17:52:00,
2013-06-20 13:01:00,90.0,66.0,28.28,SE,133,3.0,11.0,45,0.00,,,0.00,,2013-06-20 18:01:00,
2013-06-20 13:11:00,90.0,64.0,28.28,SSE,149,3.0,11.0,43,0.00,,,0.00,,2013-06-20 18:11:00,
2013-06-20 13:22:00,91.0,66.0,28.28,South,176,7.0,7.0,44,0.00,,,0.00,,2013-06-20 18:22:00,
2013-06-20 13:33:00,91.0,65.0,28.28,ESE,121,5.0,7.0,43,0.00,,,0.00,,2013-06-20 18:33:00,
2013-06-20 13:43:00,91.0,65.0,28.28,SSE,157,7.0,7.0,42,0.00,,,0.00,,2013-06-20 18:43:00,
2013-06-20 13:53:00,91.0,65.0,28.28,SSE,157,7.0,7.0,42,0.00,,,0.00,,2013-06-20 18:53:00,
2013-06-20 14:01:00,92.0,64.0,28.28,SSE,150,8.0,11.0,40,0.00,,,0.00,,2013-06-20 19:01:00,
2013-06-20 14:11:00,92.0,64.0,28.28,SSE,150,8.0,11.0,40,0.00,,,0.00,,2013-06-20 19:11:00,
2013-06-20 14:22:00,92.0,64.0,28.28,SSE,150,8.0,11.0,40,0.00,,,0.00,,2013-06-20 19:22:00,
2013-06-20 14:34:00,93.0,64.0,28.25,SSE,149,6.0,8.0,38,0.00,,,0.00,,2013-06-20 19:34:00,
2013-06-20 14:43:00,94.0,64.0,28.25,SSE,152,3.0,10.0,37,0.00,,,0.00,,2013-06-20 19:43:00,
2013-06-20 14:52:00,95.0,65.0,28.25,SE,135,3.0,10.0,37,0.00,,,0.00,,2013-06-20 19:52:00,
2013-06-20 15:02:00,95.0,65.0,28.25,SE,135,3.0,10.0,37,0.00,,,0.00,,2013-06-20 20:02:00,
2013-06-20 15:11:00,95.0,65.0,28.25,SE,135,3.0,10.0,37,0.00,,,0.00,,2013-06-20 20:11:00,
2013-06-20 15:33:00,94.0,62.0,28.25,East,101,3.0,9.0,35,0.00,,,0.00,,2013-06-20 20:33:00,